TimeCST,TemperatureF,Dew PointF,Humidity,Sea Level PressureIn,VisibilityMPH,Wind Direction,Wind SpeedMPH,Gust SpeedMPH,PrecipitationIn,Events,Conditions,WindDirDegrees,DateUTC
12:02 AM,62.6,60.8,94,30.13,8.0,East,3.5,-,N/A,,Overcast,90,2014-01-09 06:02:00
12:19 AM,62.6,59.0,88,30.13,8.0,SE,3.5,-,N/A,,Overcast,130,2014-01-09 06:19:00
12:53 AM,62.1,60.1,93,30.12,4.0,SSE,3.5,-,0.02,Rain,Light Rain,150,2014-01-09 06:53:00
1:44 AM,62.6,60.8,94,30.10,8.0,SSE,5.8,-,0.00,,Overcast,160,2014-01-09 07:44:00
1:53 AM,63.0,60.1,90,30.10,8.0,South,6.9,-,0.00,,Overcast,180,2014-01-09 07:53:00
2:10 AM,62.6,60.8,94,30.09,6.0,South,8.1,-,N/A,,Overcast,170,2014-01-09 08:10:00
2:35 AM,62.6,60.8,94,30.09,5.0,SSE,6.9,-,0.00,Rain,Light Rain,160,2014-01-09 08:35:00
2:51 AM,62.6,60.8,94,30.09,4.0,SSE,6.9,-,0.01,Rain,Light Rain,160,2014-01-09 08:51:00
2:53 AM,63.0,60.1,90,30.09,4.0,SSE,6.9,-,0.01,Rain,Light Rain,160,2014-01-09 08:53:00
3:14 AM,62.6,60.8,94,30.08,6.0,SSE,5.8,-,0.01,Rain,Light Rain,160,2014-01-09 09:14:00
3:35 AM,62.6,60.8,94,30.08,6.0,South,5.8,-,0.01,Rain,Light Rain,170,2014-01-09 09:35:00
3:50 AM,62.6,60.8,94,30.08,4.0,South,5.8,-,0.02,Rain,Light Rain,170,2014-01-09 09:50:00
3:51 AM,63.0,61.0,93,30.08,4.0,South,5.8,-,0.02,Rain,Light Rain,170,2014-01-09 09:51:00
4:53 AM,64.0,61.0,90,30.09,7.0,South,4.6,-,0.02,Rain,Light Rain,190,2014-01-09 10:53:00
5:26 AM,64.4,60.8,88,30.09,7.0,South,3.5,-,0.00,,Overcast,190,2014-01-09 11:26:00
5:37 AM,64.4,60.8,88,30.09,7.0,SSW,3.5,-,0.00,,Overcast,210,2014-01-09 11:37:00
5:53 AM,64.0,61.0,90,30.09,7.0,Calm,Calm,-,0.00,,Overcast,0,2014-01-09 11:53:00
6:53 AM,63.0,61.0,93,30.10,5.0,ESE,3.5,-,0.02,Rain,Light Rain,120,2014-01-09 12:53:00
7:53 AM,63.0,60.1,90,30.12,3.0,East,3.5,-,0.00,,Overcast,90,2014-01-09 13:53:00
8:09 AM,62.6,60.8,94,30.13,2.5,East,4.6,-,N/A,,Overcast,80,2014-01-09 14:09:00
8:14 AM,62.6,60.8,94,30.13,1.8,East,3.5,-,N/A,,Overcast,90,2014-01-09 14:14:00
8:24 AM,62.6,60.8,94,30.14,1.2,East,3.5,-,N/A,,Overcast,80,2014-01-09 14:24:00
8:32 AM,62.6,60.8,94,30.14,1.2,East,3.5,-,N/A,,Overcast,100,2014-01-09 14:32:00
8:43 AM,62.6,60.8,94,30.14,2.5,ESE,3.5,-,N/A,,Overcast,110,2014-01-09 14:43:00
8:51 AM,62.6,60.8,94,30.15,4.0,Calm,Calm,-,N/A,,Overcast,0,2014-01-09 14:51:00
8:53 AM,63.0,61.0,93,30.14,4.0,ESE,3.5,-,N/A,,Overcast,120,2014-01-09 14:53:00
9:02 AM,62.6,60.8,94,30.15,3.0,SE,4.6,-,N/A,,Overcast,130,2014-01-09 15:02:00
9:30 AM,64.4,62.6,94,30.15,1.8,ESE,4.6,-,0.01,Rain,Light Rain,110,2014-01-09 15:30:00
9:36 AM,64.4,62.6,94,30.15,2.0,ESE,5.8,-,0.02,Rain,Light Rain,110,2014-01-09 15:36:00
9:51 AM,64.4,60.8,88,30.16,2.0,SE,4.6,-,0.02,Rain,Light Rain,140,2014-01-09 15:51:00
9:53 AM,64.0,62.1,93,30.16,2.0,SE,4.6,-,0.02,Rain,Light Rain,140,2014-01-09 15:53:00
10:03 AM,64.4,62.6,94,30.16,3.0,ESE,3.5,-,0.00,Rain,Light Rain,120,2014-01-09 16:03:00
10:53 AM,69.1,66.0,90,30.14,7.0,SSE,10.4,-,0.00,,Overcast,150,2014-01-09 16:53:00
11:46 AM,71.6,66.2,83,30.12,8.0,SSE,13.8,-,N/A,,Overcast,150,2014-01-09 17:46:00
11:53 AM,71.1,66.0,84,30.12,8.0,SSE,15.0,21.9,N/A,,Overcast,150,2014-01-09 17:53:00
12:23 PM,69.8,64.4,83,30.10,6.0,SSE,17.3,-,0.00,Rain,Light Rain,160,2014-01-09 18:23:00
12:30 PM,69.8,66.2,88,30.10,5.0,SSE,11.5,-,0.00,Rain,Light Rain,160,2014-01-09 18:30:00
12:42 PM,69.8,66.2,88,30.10,3.0,South,10.4,-,0.00,Rain,Light Rain,170,2014-01-09 18:42:00
12:53 PM,70.0,66.9,90,30.09,4.0,SSE,11.5,-,0.00,Rain,Light Rain,160,2014-01-09 18:53:00
1:03 PM,69.8,66.2,88,30.08,9.0,SSE,11.5,-,0.00,,Overcast,150,2014-01-09 19:03:00
1:26 PM,71.6,66.2,83,30.06,8.0,SE,12.7,-,0.00,,Overcast,140,2014-01-09 19:26:00
1:44 PM,71.6,66.2,83,30.05,8.0,SE,12.7,20.7,0.00,,Overcast,140,2014-01-09 19:44:00
1:53 PM,73.0,68.0,84,30.04,8.0,SSE,11.5,-,0.00,,Overcast,150,2014-01-09 19:53:00
2:07 PM,71.6,66.2,83,30.04,8.0,SSE,17.3,23.0,N/A,,Overcast,150,2014-01-09 20:07:00
2:34 PM,69.8,66.2,88,30.04,5.0,SSE,15.0,-,0.00,Rain,Light Rain,150,2014-01-09 20:34:00
2:49 PM,69.8,66.2,88,30.03,8.0,SE,12.7,-,0.00,Rain,Light Rain,140,2014-01-09 20:49:00
2:53 PM,70.0,66.9,90,30.03,8.0,SE,13.8,-,0.00,,Overcast,140,2014-01-09 20:53:00
3:53 PM,71.1,66.0,84,30.03,7.0,SE,12.7,-,N/A,,Overcast,140,2014-01-09 21:53:00
4:04 PM,69.8,64.4,83,30.03,6.0,ESE,10.4,-,0.00,Rain,Light Rain,120,2014-01-09 22:04:00
5:53 PM,69.1,64.9,87,30.02,8.0,SSE,17.3,23.0,N/A,,Overcast,150,2014-01-09 23:53:00
6:02 PM,69.8,64.4,83,30.03,8.0,SSE,16.1,-,N/A,,Overcast,150,2014-01-10 00:02:00
6:53 PM,68.0,64.0,87,30.03,9.0,SSE,13.8,-,N/A,,Overcast,150,2014-01-10 00:53:00
7:53 PM,69.1,64.9,87,30.04,9.0,SSE,13.8,-,N/A,,Mostly Cloudy,150,2014-01-10 01:53:00
8:50 PM,69.8,64.4,83,30.05,9.0,SSE,10.4,-,N/A,,Overcast,150,2014-01-10 02:50:00
8:53 PM,69.1,64.9,87,30.06,8.0,SSE,12.7,-,N/A,,Overcast,160,2014-01-10 02:53:00
9:07 PM,69.8,64.4,83,30.05,8.0,SSE,12.7,-,N/A,,Overcast,150,2014-01-10 03:07:00
9:53 PM,70.0,64.9,84,30.05,9.0,SSE,10.4,-,N/A,,Overcast,160,2014-01-10 03:53:00
10:25 PM,69.8,64.4,83,30.04,9.0,SSE,11.5,-,0.00,,Overcast,160,2014-01-10 04:25:00
10:40 PM,69.8,64.4,83,30.04,9.0,SSE,11.5,-,0.00,,Overcast,160,2014-01-10 04:40:00
10:53 PM,69.1,64.9,87,30.04,9.0,SSE,9.2,-,0.00,,Overcast,160,2014-01-10 04:53:00
11:10 PM,69.8,64.4,83,30.03,8.0,SSE,9.2,-,0.00,Rain,Light Rain,160,2014-01-10 05:10:00
11:38 PM,69.8,64.4,83,30.03,8.0,SSE,8.1,-,0.00,,Overcast,160,2014-01-10 05:38:00
11:53 PM,69.1,64.9,87,30.01,8.0,SSE,9.2,-,0.00,,Overcast,160,2014-01-10 05:53:00